QPF
0.00 0.00 0.01 0.03 0.03 0.02 0.02 0.01 0.00 0.00 0.00 0.00 0.00 0.00 0.00 0.00 0.00 0.00 0.00 0.00 0.00 0.00 0.00 0.00 0.01 0.02 0.02 0.02 0.01 0.00 0.00 0.00 0.00 0.00 0.00 0.00 0.00 0.00 0.00 0.00 0.00 0.00 0.00
0.00 0.00 0.01 0.03 0.03 0.02 0.02 0.01 0.00 0.00 0.00 0.00 0.00 0.00 0.00 0.00 0.00 0.00 0.00 0.00 0.00 0.00 0.00 0.00 0.01 0.01 0.01 0.01 0.00 0.00 0.00 0.00 0.00 0.00 0.00 0.00 0.00 0.00 0.00 0.00 0.01 0.01 0.01
0.00 0.00 0.00 0.02 0.03 0.03 0.02 0.01 0.00 0.00 0.00 0.00 0.00 0.00 0.00 0.00 0.00 0.00 0.00 0.00 0.00 0.00 0.00 0.00 0.00 0.00 0.01 0.01 0.00 0.00 0.00 0.00 0.00 0.00 0.00 0.00 0.00 0.00 0.00 0.00 0.01 0.02 0.02
0.00 0.00 0.00 0.01 0.02 0.03 0.02 0.00 0.00 0.00 0.00 0.00 0.00 0.00 0.00 0.00 0.00 0.00 0.00 0.00 0.00 0.00 0.00 0.00 0.00 0.00 0.01 0.02 0.01 0.00 0.00 0.00 0.00 0.00 0.00 0.00 0.00 0.00 0.00 0.00 0.00 0.01 0.01
0.00 0.00 0.00 0.00 0.01 0.02 0.01 0.00 0.00 0.00 0.00 0.00 0.00 0.00 0.00 0.00 0.00 0.00 0.00 0.00 0.00 0.00 0.00 0.00 0.00 0.00 0.00 0.01 0.01 0.01 0.00 0.00 0.00 0.00 0.00 0.00 0.00 0.00 0.00 0.00 0.00 0.00 0.00
0.00 0.00 0.00 0.00 0.01 0.01 0.01 0.00 0.00 0.00 0.00 0.00 0.00 0.00 0.01 0.00 0.00 0.00 0.00 0.00 0.00 0.00 0.00 0.00 0.00 0.00 0.00 0.00 0.00 0.01 0.01 0.00 0.00 0.00 0.00 0.00 0.00 0.00 0.00 0.00 0.00 0.00 0.00
0.00 0.00 0.00 0.00 0.00 0.01 0.01 0.00 0.00 0.00 0.00 0.00 0.00 0.00 0.01 0.01 0.00 0.00 0.00 0.00 0.00 0.00 0.00 0.00 0.00 0.00 0.00 0.00 0.00 0.00 0.01 0.00 0.00 0.00 0.00 0.00 0.00 0.00 0.00 0.00 0.00 0.00 0.00
0.00 0.00 0.00 0.00 0.00 0.01 0.01 0.00 0.00 0.00 0.00 0.00 0.00 0.00 0.00 0.00 0.00 0.00 0.00 0.00 0.00 0.00 0.00 0.00 0.00 0.00 0.00 0.00 0.00 0.00 0.01 0.00 0.00 0.00 0.00 0.00 0.00 0.00 0.00 0.00 0.00 0.00 0.00
0.00 0.00 0.00 0.00 0.00 0.00 0.01 0.00 0.00 0.00 0.00 0.00 0.00 0.00 0.00 0.00 0.00 0.00 0.00 0.00 0.00 0.00 0.01 0.01 0.01 0.01 0.01 0.00 0.00 0.00 0.00 0.00 0.00 0.00 0.00 0.00 0.00 0.00 0.00 0.01 0.01 0.01 0.00
0.00 0.00 0.00 0.00 0.00 0.00 0.00 0.00 0.00 0.00 0.00 0.00 0.00 0.00 0.00 0.00 0.00 0.00 0.00 0.00 0.00 0.00 0.01 0.01 0.01 0.02 0.01 0.01 0.00 0.00 0.00 0.00 0.00 0.00 0.00 0.00 0.00 0.00 0.00 0.01 0.01 0.01 0.01
0.00 0.00 0.00 0.00 0.00 0.00 0.00 0.00 0.00 0.00 0.00 0.00 0.00 0.00 0.00 0.00 0.00 0.00 0.00 0.00 0.00 0.00 0.00 0.01 0.01 0.01 0.01 0.00 0.00 0.00 0.00 0.00 0.00 0.00 0.00 0.00 0.00 0.00 0.00 0.00 0.01 0.01 0.01
0.00 0.00 0.00 0.00 0.00 0.00 0.00 0.00 0.00 0.00 0.00 0.00 0.00 0.00 0.00 0.00 0.00 0.00 0.00 0.00 0.00 0.00 0.00 0.00 0.00 0.00 0.00 0.00 0.00 0.00 0.00 0.00 0.00 0.00 0.00 0.00 0.00 0.00 0.00 0.00 0.00 0.01 0.01
0.00 0.00 0.00 0.00 0.00 0.00 0.00 0.00 0.00 0.00 0.00 0.00 0.00 0.00 0.00 0.00 0.00 0.00 0.00 0.00 0.00 0.00 0.00 0.00 0.00 0.00 0.00 0.00 0.00 0.00 0.00 0.00 0.00 0.00 0.00 0.00 0.00 0.00 0.00 0.00 0.00 0.00 0.01
0.00 0.00 0.00 0.00 0.00 0.00 0.00 0.00 0.00 0.00 0.00 0.00 0.00 0.00 0.00 0.00 0.00 0.00 0.00 0.00 0.00 0.00 0.00 0.00 0.00 0.00 0.00 0.00 0.00 0.00 0.00 0.00 0.00 0.00 0.00 0.00 0.00 0.00 0.00 0.00 0.00 0.00 0.00
0.00 0.00 0.00 0.00 0.00 0.00 0.00 0.00 0.00 0.00 0.00 0.00 0.00 0.00 0.00 0.00 0.00 0.00 0.00 0.00 0.00 0.00 0.00 0.00 0.00 0.00 0.00 0.00 0.00 0.00 0.00 0.00 0.00 0.00 0.00 0.00 0.00 0.00 0.00 0.00 0.00 0.00 0.00
0.00 0.00 0.00 0.00 0.00 0.00 0.00 0.00 0.00 0.00 0.00 0.00 0.00 0.00 0.00 0.00 0.00 0.00 0.00 0.00 0.00 0.00 0.00 0.00 0.00 0.00 0.00 0.00 0.00 0.00 0.00 0.00 0.00 0.00 0.00 0.00 0.00 0.00 0.00 0.00 0.00 0.00 0.00
0.00 0.00 0.00 0.00 0.00 0.00 0.00 0.00 0.00 0.00 0.00 0.00 0.00 0.00 0.00 0.00 0.00 0.00 0.00 0.00 0.00 0.00 0.00 0.00 0.00 0.00 0.00 0.00 0.00 0.00 0.00 0.00 0.00 0.00 0.00 0.00 0.00 0.00 0.00 0.00 0.00 0.00 0.00
0.00 0.00 0.00 0.00 0.00 0.00 0.00 0.00 0.00 0.00 0.00 0.00 0.00 0.00 0.00 0.00 0.00 0.00 0.00 0.00 0.00 0.00 0.00 0.00 0.00 0.00 0.00 0.00 0.00 0.00 0.00 0.00 0.00 0.00 0.00 0.00 0.00 0.00 0.00 0.00 0.00 0.00 0.00
0.00 0.00 0.00 0.00 0.00 0.00 0.00 0.00 0.00 0.00 0.00 0.00 0.00 0.00 0.00 0.00 0.00 0.00 0.00 0.00 0.00 0.00 0.00 0.00 0.00 0.00 0.00 0.00 0.00 0.00 0.00 0.00 0.00 0.00 0.00 0.00 0.00 0.00 0.00 0.00 0.00 0.00 0.00
0.00 0.00 0.00 0.00 0.00 0.00 0.00 0.00 0.00 0.00 0.00 0.00 0.00 0.00 0.00 0.00 0.00 0.00 0.00 0.00 0.00 0.00 0.00 0.00 0.00 0.00 0.00 0.00 0.00 0.00 0.00 0.00 0.00 0.00 0.00 0.00 0.00 0.00 0.00 0.00 0.00 0.00 0.00
0.00 0.00 0.00 0.00 0.00 0.00 0.00 0.00 0.00 0.00 0.00 0.00 0.00 0.00 0.00 0.00 0.00 0.00 0.00 0.00 0.00 0.00 0.00 0.00 0.00 0.00 0.00 0.00 0.00 0.00 0.00 0.00 0.00 0.00 0.00 0.00 0.00 0.00 0.00 0.00 0.00 0.00 0.00
0.00 0.00 0.00 0.00 0.00 0.00 0.00 0.00 0.00 0.00 0.00 0.00 0.00 0.00 0.00 0.00 0.00 0.00 0.00 0.00 0.00 0.00 0.00 0.00 0.00 0.00 0.00 0.00 0.00 0.01 0.01 0.00 0.00 0.00 0.00 0.00 0.00 0.00 0.00 0.00 0.01 0.01 0.01
0.00 0.00 0.00 0.00 0.00 0.00 0.00 0.00 0.00 0.00 0.00 0.00 0.00 0.00 0.00 0.00 0.00 0.00 0.00 0.00 0.00 0.00 0.00 0.00 0.00 0.00 0.00 0.00 0.00 0.01 0.02 0.01 0.01 0.00 0.00 0.00 0.00 0.00 0.00 0.00 0.00 0.00 0.01
0.00 0.00 0.00 0.00 0.00 0.00 0.00 0.00 0.00 0.00 0.00 0.00 0.00 0.00 0.00 0.00 0.00 0.00 0.00 0.00 0.00 0.00 0.00 0.00 0.00 0.00 0.00 0.00 0.00 0.00 0.01 0.01 0.01 0.01 0.00 0.00 0.00 0.00 0.00 0.00 0.00 0.00 0.00
0.00 0.00 0.00 0.00 0.00 0.00 0.00 0.00 0.00 0.00 0.00 0.00 0.00 0.00 0.00 0.00 0.00 0.00 0.00 0.00 0.00 0.00 0.00 0.00 0.00 0.00 0.00 0.00 0.00 0.00 0.00 0.00 0.00 0.00 0.00 0.00 0.00 0.00 0.00 0.00 0.00 0.00 0.00
0.00 0.00 0.00 0.00 0.00 0.00 0.00 0.00 0.00 0.00 0.00 0.00 0.00 0.00 0.00 0.00 0.00 0.00 0.00 0.00 0.00 0.00 0.00 0.00 0.00 0.00 0.00 0.00 0.00 0.00 0.00 0.00 0.00 0.00 0.00 0.00 0.00 0.00 0.00 0.00 0.00 0.00 0.00
MSLP
1010.78 1010.89 1011.14 1011.49 1011.90 1012.33 1012.71 1013.02 1013.22 1013.33 1013.35 1013.33 1013.31 1013.33 1013.40 1013.51 1013.65 1013.78 1013.88 1013.92 1013.89 1013.80 1013.66 1013.53 1013.41 1013.35 1013.35 1013.40 1013.48 1013.57 1013.65 1013.68 1013.68 1013.64 1013.56 1013.47 1013.38 1013.31 1013.25 1013.21 1013.19 1013.17 1013.16
1010.70 1010.83 1011.07 1011.42 1011.85 1012.29 1012.70 1013.03 1013.27 1013.40 1013.46 1013.47 1013.47 1013.49 1013.55 1013.66 1013.78 1013.90 1013.98 1014.00 1013.96 1013.87 1013.76 1013.63 1013.54 1013.49 1013.49 1013.53 1013.60 1013.67 1013.73 1013.75 1013.73 1013.68 1013.61 1013.53 1013.46 1013.39 1013.34 1013.31 1013.29 1013.28 1013.27
1010.60 1010.73 1010.98 1011.33 1011.76 1012.21 1012.65 1013.01 1013.29 1013.47 1013.57 1013.61 1013.64 1013.67 1013.73 1013.81 1013.91 1013.99 1014.04 1014.05 1014.01 1013.93 1013.84 1013.74 1013.68 1013.65 1013.66 1013.70 1013.75 1013.80 1013.82 1013.82 1013.78 1013.73 1013.66 1013.58 1013.51 1013.45 1013.40 1013.36 1013.34 1013.34 1013.33
1010.51 1010.65 1010.90 1011.25 1011.67 1012.14 1012.58 1012.97 1013.29 1013.51 1013.66 1013.74 1013.79 1013.83 1013.89 1013.95 1014.01 1014.07 1014.09 1014.09 1014.05 1013.98 1013.91 1013.86 1013.83 1013.83 1013.85 1013.88 1013.91 1013.93 1013.92 1013.89 1013.83 1013.75 1013.66 1013.59 1013.51 1013.45 1013.40 1013.36 1013.33 1013.32 1013.32
1010.46 1010.61 1010.86 1011.21 1011.62 1012.08 1012.53 1012.93 1013.27 1013.53 1013.70 1013.81 1013.89 1013.94 1014.00 1014.05 1014.09 1014.12 1014.13 1014.11 1014.08 1014.03 1013.99 1013.97 1013.97 1013.99 1014.02 1014.05 1014.06 1014.04 1014.00 1013.93 1013.84 1013.73 1013.64 1013.54 1013.45 1013.38 1013.32 1013.27 1013.24 1013.22 1013.23
1010.49 1010.65 1010.90 1011.24 1011.64 1012.08 1012.51 1012.90 1013.23 1013.49 1013.68 1013.82 1013.91 1013.98 1014.04 1014.09 1014.13 1014.15 1014.15 1014.13 1014.10 1014.08 1014.06 1014.07 1014.09 1014.12 1014.15 1014.16 1014.15 1014.09 1014.01 1013.91 1013.78 1013.66 1013.54 1013.43 1013.33 1013.24 1013.16 1013.10 1013.07 1013.05 1013.07
1010.60 1010.78 1011.03 1011.35 1011.73 1012.13 1012.52 1012.88 1013.19 1013.43 1013.61 1013.76 1013.86 1013.95 1014.03 1014.08 1014.13 1014.15 1014.15 1014.14 1014.12 1014.11 1014.11 1014.12 1014.15 1014.18 1014.19 1014.18 1014.13 1014.05 1013.93 1013.79 1013.64 1013.49 1013.36 1013.23 1013.12 1013.03 1012.95 1012.88 1012.83 1012.81 1012.83
1010.76 1010.95 1011.20 1011.51 1011.85 1012.21 1012.55 1012.86 1013.12 1013.33 1013.49 1013.63 1013.74 1013.85 1013.94 1014.03 1014.09 1014.13 1014.15 1014.14 1014.13 1014.12 1014.11 1014.12 1014.13 1014.14 1014.12 1014.08 1013.99 1013.87 1013.72 1013.55 1013.39 1013.23 1013.09 1012.96 1012.85 1012.75 1012.66 1012.59 1012.54 1012.52 1012.53
1010.91 1011.12 1011.37 1011.66 1011.97 1012.29 1012.57 1012.82 1013.03 1013.19 1013.33 1013.45 1013.57 1013.70 1013.82 1013.92 1014.02 1014.08 1014.11 1014.11 1014.10 1014.08 1014.05 1014.04 1014.02 1013.98 1013.93 1013.84 1013.72 1013.56 1013.38 1013.20 1013.02 1012.86 1012.72 1012.61 1012.51 1012.42 1012.33 1012.26 1012.20 1012.17 1012.18
1011.01 1011.21 1011.46 1011.74 1012.02 1012.29 1012.53 1012.73 1012.89 1013.01 1013.12 1013.24 1013.36 1013.50 1013.65 1013.78 1013.90 1013.98 1014.03 1014.03 1014.01 1013.97 1013.92 1013.86 1013.80 1013.72 1013.62 1013.48 1013.32 1013.13 1012.93 1012.74 1012.56 1012.41 1012.29 1012.19 1012.11 1012.03 1011.95 1011.88 1011.82 1011.78 1011.77
1010.98 1011.17 1011.41 1011.68 1011.94 1012.18 1012.39 1012.55 1012.68 1012.78 1012.88 1012.99 1013.12 1013.28 1013.44 1013.60 1013.73 1013.83 1013.87 1013.87 1013.84 1013.77 1013.69 1013.59 1013.48 1013.36 1013.21 1013.04 1012.84 1012.62 1012.41 1012.20 1012.02 1011.89 1011.78 1011.70 1011.64 1011.58 1011.52 1011.45 1011.38 1011.32 1011.28
1010.81 1010.98 1011.21 1011.45 1011.70 1011.92 1012.11 1012.27 1012.39 1012.49 1012.59 1012.71 1012.85 1013.02 1013.20 1013.36 1013.50 1013.59 1013.64 1013.62 1013.57 1013.47 1013.36 1013.23 1013.09 1012.92 1012.74 1012.53 1012.30 1012.07 1011.83 1011.61 1011.44 1011.30 1011.21 1011.15 1011.10 1011.06 1011.00 1010.93 1010.85 1010.77 1010.70
1010.53 1010.66 1010.85 1011.07 1011.30 1011.52 1011.72 1011.88 1012.02 1012.15 1012.27 1012.41 1012.57 1012.74 1012.92 1013.08 1013.21 1013.29 1013.31 1013.28 1013.20 1013.09 1012.95 1012.80 1012.63 1012.45 1012.24 1012.01 1011.75 1011.49 1011.23 1011.00 1010.81 1010.67 1010.58 1010.52 1010.48 1010.45 1010.39 1010.32 1010.22 1010.10 1010.00
1010.19 1010.27 1010.40 1010.58 1010.79 1011.02 1011.23 1011.43 1011.61 1011.78 1011.94 1012.10 1012.28 1012.45 1012.62 1012.77 1012.87 1012.92 1012.92 1012.87 1012.77 1012.64 1012.49 1012.33 1012.15 1011.96 1011.73 1011.48 1011.21 1010.92 1010.64 1010.38 1010.16 1009.99 1009.88 1009.81 1009.77 1009.72 1009.67 1009.58 1009.46 1009.33 1009.18
1009.87 1009.88 1009.95 1010.08 1010.27 1010.49 1010.73 1010.97 1011.20 1011.42 1011.63 1011.83 1012.02 1012.19 1012.34 1012.46 1012.53 1012.55 1012.51 1012.43 1012.32 1012.18 1012.03 1011.86 1011.69 1011.49 1011.26 1011.00 1010.70 1010.38 1010.06 1009.75 1009.48 1009.27 1009.12 1009.02 1008.95 1008.90 1008.83 1008.73 1008.60 1008.43 1008.26
1009.67 1009.59 1009.59 1009.66 1009.81 1010.03 1010.29 1010.57 1010.86 1011.14 1011.40 1011.63 1011.83 1011.99 1012.12 1012.21 1012.24 1012.22 1012.16 1012.05 1011.92 1011.78 1011.63 1011.47 1011.29 1011.09 1010.85 1010.57 1010.24 1009.88 1009.50 1009.13 1008.80 1008.52 1008.31 1008.16 1008.06 1007.98 1007.89 1007.78 1007.64 1007.46 1007.26
1009.64 1009.48 1009.39 1009.40 1009.51 1009.72 1010.00 1010.32 1010.66 1010.99 1011.29 1011.55 1011.76 1011.92 1012.02 1012.07 1012.07 1012.02 1011.92 1011.80 1011.66 1011.51 1011.35 1011.19 1011.01 1010.80 1010.54 1010.23 1009.86 1009.44 1009.00 1008.55 1008.14 1007.78 1007.49 1007.28 1007.13 1007.01 1006.90 1006.78 1006.63 1006.45 1006.23
1009.80 1009.56 1009.39 1009.34 1009.41 1009.61 1009.91 1010.26 1010.64 1011.02 1011.35 1011.63 1011.84 1011.99 1012.07 1012.09 1012.06 1011.98 1011.87 1011.73 1011.58 1011.42 1011.26 1011.08 1010.88 1010.65 1010.36 1010.01 1009.58 1009.10 1008.58 1008.05 1007.55 1007.10 1006.72 1006.43 1006.22 1006.06 1005.92 1005.79 1005.64 1005.44 1005.22
1010.11 1009.82 1009.59 1009.49 1009.54 1009.73 1010.03 1010.41 1010.83 1011.23 1011.59 1011.88 1012.09 1012.22 1012.29 1012.29 1012.24 1012.16 1012.03 1011.89 1011.72 1011.55 1011.36 1011.16 1010.93 1010.66 1010.33 1009.92 1009.44 1008.89 1008.30 1007.68 1007.08 1006.54 1006.07 1005.69 1005.41 1005.19 1005.02 1004.86 1004.70 1004.50 1004.27
1010.53 1010.21 1009.95 1009.83 1009.86 1010.05 1010.36 1010.77 1011.20 1011.62 1011.99 1012.28 1012.49 1012.61 1012.67 1012.66 1012.61 1012.52 1012.40 1012.25 1012.08 1011.89 1011.68 1011.44 1011.17 1010.85 1010.46 1010.00 1009.46 1008.85 1008.18 1007.49 1006.80 1006.16 1005.60 1005.13 1004.75 1004.46 1004.24 1004.05 1003.86 1003.66 1003.42
1011.00 1010.67 1010.41 1010.29 1010.33 1010.53 1010.86 1011.28 1011.73 1012.16 1012.52 1012.80 1012.99 1013.11 1013.16 1013.16 1013.11 1013.03 1012.92 1012.78 1012.61 1012.40 1012.16 1011.89 1011.56 1011.19 1010.75 1010.24 1009.65 1008.98 1008.27 1007.51 1006.75 1006.02 1005.36 1004.79 1004.31 1003.93 1003.64 1003.39 1003.16 1002.93 1002.67
1011.47 1011.16 1010.93 1010.83 1010.90 1011.12 1011.48 1011.91 1012.36 1012.77 1013.12 1013.38 1013.56 1013.66 1013.71 1013.71 1013.69 1013.63 1013.54 1013.41 1013.23 1013.02 1012.74 1012.43 1012.06 1011.64 1011.16 1010.61 1009.99 1009.30 1008.54 1007.74 1006.92 1006.12 1005.37 1004.69 1004.11 1003.62 1003.22 1002.90 1002.61 1002.33 1002.05
1011.90 1011.65 1011.46 1011.41 1011.53 1011.78 1012.16 1012.59 1013.03 1013.42 1013.74 1013.97 1014.12 1014.21 1014.26 1014.27 1014.26 1014.23 1014.16 1014.05 1013.88 1013.65 1013.35 1013.00 1012.59 1012.14 1011.62 1011.06 1010.43 1009.74 1008.98 1008.16 1007.31 1006.45 1005.61 1004.83 1004.13 1003.52 1003.01 1002.57 1002.20 1001.86 1001.53
1012.30 1012.12 1012.01 1012.02 1012.18 1012.48 1012.86 1013.29 1013.71 1014.07 1014.34 1014.53 1014.65 1014.72 1014.75 1014.78 1014.78 1014.78 1014.73 1014.63 1014.46 1014.22 1013.90 1013.52 1013.09 1012.61 1012.09 1011.53 1010.92 1010.25 1009.51 1008.70 1007.84 1006.94 1006.03 1005.15 1004.33 1003.59 1002.95 1002.40 1001.93 1001.51 1001.13
1012.69 1012.60 1012.57 1012.65 1012.86 1013.18 1013.58 1013.99 1014.37 1014.68 1014.91 1015.05 1015.12 1015.16 1015.18 1015.21 1015.22 1015.23 1015.20 1015.10 1014.93 1014.67 1014.34 1013.93 1013.48 1012.99 1012.48 1011.94 1011.36 1010.73 1010.04 1009.26 1008.41 1007.49 1006.54 1005.58 1004.66 1003.79 1003.02 1002.34 1001.76 1001.26 1000.81
1013.10 1013.09 1013.14 1013.29 1013.54 1013.89 1014.28 1014.66 1015.00 1015.26 1015.43 1015.52 1015.55 1015.55 1015.56 1015.57 1015.59 1015.60 1015.56 1015.46 1015.28 1015.00 1014.64 1014.22 1013.74 1013.25 1012.75 1012.23 1011.70 1011.12 1010.48 1009.76 1008.93 1008.02 1007.04 1006.03 1005.02 1004.05 1003.16 1002.37 1001.67 1001.08 1000.57
Thickness
5772 5770 5763 5760 5757 5754 5751 5749 5746 5744 5742 5742 5741 5741 5740 5739 5739 5739 5738 5738 5737 5736 5736 5736 5736 5735 5734 5733 5731 5729 5728 5726 5723 5721 5719 5718 5716 5716 5715 5715 5714 5717 5714
5774 5768 5761 5758 5755 5752 5749 5746 5743 5741 5739 5738 5738 5738 5736 5736 5735 5735 5735 5734 5734 5733 5733 5733 5733 5732 5731 5730 5728 5726 5724 5722 5719 5717 5715 5714 5713 5711 5711 5710 5710 5712 5710
5771 5766 5760 5756 5753 5750 5747 5744 5741 5738 5736 5735 5735 5734 5733 5733 5732 5732 5731 5731 5731 5730 5729 5729 5729 5729 5728 5727 5725 5723 5721 5719 5716 5713 5712 5714 5713 5709 5707 5707 5706 5706 5706
5767 5764 5760 5754 5751 5748 5745 5742 5738 5735 5733 5732 5731 5731 5730 5730 5729 5728 5728 5728 5727 5727 5726 5725 5725 5725 5724 5723 5721 5719 5718 5715 5713 5710 5712 5714 5712 5708 5705 5705 5704 5704 5702
5764 5761 5758 5752 5749 5746 5743 5739 5736 5733 5731 5729 5728 5728 5728 5727 5726 5726 5725 5724 5724 5723 5722 5721 5721 5720 5720 5718 5717 5716 5714 5713 5710 5708 5711 5710 5709 5707 5704 5704 5703 5702 5700
5761 5758 5755 5749 5746 5744 5741 5737 5734 5732 5729 5727 5726 5725 5725 5725 5724 5723 5722 5721 5720 5719 5718 5717 5717 5716 5716 5714 5713 5712 5711 5710 5708 5710 5710 5709 5709 5706 5703 5703 5702 5700 5698
5758 5755 5752 5745 5743 5741 5738 5736 5733 5730 5727 5725 5723 5722 5722 5722 5721 5720 5719 5717 5717 5716 5714 5713 5713 5712 5712 5710 5709 5708 5707 5706 5706 5708 5708 5707 5707 5704 5702 5701 5701 5699 5696
5754 5751 5748 5742 5740 5738 5736 5733 5731 5728 5725 5723 5721 5719 5719 5718 5717 5717 5715 5714 5713 5712 5711 5710 5710 5709 5708 5707 5706 5705 5704 5702 5703 5705 5705 5705 5703 5700 5699 5699 5698 5697 5695
5750 5748 5745 5742 5738 5735 5733 5731 5728 5726 5723 5720 5718 5716 5715 5714 5713 5713 5712 5711 5710 5709 5708 5707 5707 5706 5705 5704 5703 5702 5700 5699 5699 5701 5702 5701 5700 5696 5695 5695 5695 5694 5692
5746 5745 5744 5742 5739 5736 5733 5729 5726 5723 5720 5718 5715 5713 5712 5711 5710 5709 5708 5707 5706 5706 5705 5704 5703 5703 5702 5701 5700 5699 5697 5695 5698 5700 5699 5698 5694 5692 5691 5690 5690 5689 5688
5740 5742 5742 5740 5738 5735 5733 5729 5724 5721 5718 5715 5713 5711 5709 5710 5711 5708 5707 5704 5703 5702 5702 5701 5700 5699 5698 5698 5697 5695 5693 5695 5698 5697 5695 5694 5690 5688 5686 5685 5684 5683 5682
5739 5739 5740 5738 5736 5733 5730 5727 5724 5721 5718 5715 5714 5712 5710 5709 5707 5705 5703 5701 5700 5699 5698 5697 5696 5694 5693 5695 5696 5691 5691 5693 5692 5692 5692 5689 5685 5683 5682 5681 5679 5678 5677
5742 5740 5739 5737 5735 5732 5729 5726 5724 5721 5717 5714 5711 5709 5706 5705 5703 5702 5701 5700 5698 5696 5696 5695 5693 5692 5692 5691 5689 5688 5688 5687 5688 5688 5688 5684 5680 5678 5678 5677 5675 5673 5672
5740 5740 5739 5737 5734 5731 5729 5726 5723 5719 5716 5712 5708 5706 5704 5702 5700 5700 5698 5697 5695 5694 5692 5690 5689 5689 5687 5686 5685 5684 5684 5683 5683 5683 5683 5680 5676 5674 5673 5671 5670 5669 5668
5739 5739 5739 5737 5734 5731 5727 5724 5721 5718 5715 5711 5706 5703 5701 5699 5698 5697 5694 5691 5690 5688 5687 5685 5684 5684 5683 5682 5682 5680 5680 5680 5680 5680 5680 5678 5674 5671 5669 5668 5667 5666 5664
5736 5737 5737 5736 5734 5730 5726 5722 5719 5716 5711 5708 5704 5701 5697 5695 5693 5690 5688 5686 5685 5683 5681 5679 5679 5678 5678 5678 5678 5678 5678 5679 5678 5677 5677 5677 5674 5670 5668 5667 5666 5664 5662
5731 5733 5734 5733 5731 5728 5724 5720 5716 5712 5708 5704 5700 5696 5693 5690 5687 5685 5683 5681 5679 5677 5675 5674 5673 5672 5672 5672 5672 5673 5674 5675 5674 5674 5673 5673 5672 5670 5666 5663 5662 5661 5660
5725 5727 5729 5728 5727 5724 5720 5715 5711 5708 5703 5699 5695 5691 5688 5685 5682 5680 5678 5676 5673 5670 5669 5667 5666 5666 5666 5665 5666 5667 5668 5668 5668 5668 5667 5667 5665 5665 5663 5659 5656 5654 5653
5720 5722 5723 5723 5722 5719 5714 5708 5704 5701 5696 5692 5688 5684 5681 5678 5675 5673 5670 5667 5666 5663 5661 5659 5658 5657 5657 5657 5657 5658 5659 5661 5662 5662 5662 5661 5659 5657 5655 5654 5650 5647 5644
5712 5715 5716 5716 5715 5711 5707 5701 5696 5691 5686 5681 5677 5673 5670 5667 5664 5662 5659 5656 5655 5653 5650 5649 5647 5647 5646 5647 5648 5650 5653 5655 5656 5656 5655 5654 5652 5650 5647 5645 5643 5642 5638
5704 5706 5706 5707 5706 5703 5699 5693 5686 5680 5674 5669 5664 5660 5657 5654 5651 5648 5647 5644 5642 5640 5638 5637 5636 5636 5636 5635 5636 5640 5644 5648 5650 5649 5647 5644 5642 5640 5639 5636 5634 5631 5630
5695 5695 5696 5695 5694 5692 5687 5682 5676 5670 5663 5657 5652 5647 5644 5641 5638 5636 5633 5632 5629 5627 5625 5623 5621 5620 5621 5619 5618 5622 5630 5635 5637 5632 5626 5626 5626 5626 5624 5622 5619 5615 5613
5683 5684 5683 5682 5681 5678 5675 5670 5664 5658 5653 5647 5641 5636 5632 5629 5625 5623 5620 5618 5616 5614 5611 5608 5606 5604 5604 5604 5601 5598 5600 5607 5607 5613 5613 5609 5607 5607 5604 5601 5598 5596 5594
5673 5673 5672 5671 5669 5666 5664 5660 5655 5649 5642 5635 5630 5625 5621 5616 5613 5610 5607 5604 5602 5600 5597 5594 5590 5587 5586 5585 5582 5578 5572 5570 5573 5586 5587 5585 5583 5581 5580 5579 5576 5574 5570
5662 5662 5661 5660 5657 5654 5651 5646 5642 5636 5629 5624 5619 5614 5611 5605 5600 5596 5593 5590 5587 5584 5580 5577 5573 5570 5567 5563 5559 5556 5553 5550 5548 5552 5561 5562 5558 5555 5553 5551 5548 5546 5543
5653 5652 5650 5648 5644 5640 5636 5633 5628 5623 5618 5613 5608 5604 5600 5595 5589 5584 5580 5577 5573 5569 5564 5560 5556 5552 5547 5541 5536 5532 5528 5524 5522 5521 5527 5536 5537 5537 5529 5526 5521 5517 5514